Photometre #44[NE_1.6] Rome_La_Sapienza AOT

File : 20221126_44.hum

26/11/2022,07:09:43,TEMP=11.9,BA=5.68,STAT.A=7.0,ExtBa=13.34
26/11/2022,07:14:04,TEMP=11.9,BA=5.64,STAT.A=7.0,ExtBa=13.34
26/11/2022,07:19:13,TEMP=11.8,BA=5.64,STAT.A=7.0,ExtBa=13.34
26/11/2022,07:25:24,TEMP=11.7,BA=5.64,STAT.A=7.0,ExtBa=13.34
26/11/2022,07:32:59,TEMP=11.7,BA=5.68,STAT.A=7.0,ExtBa=13.34
26/11/2022,07:42:33,TEMP=11.9,BA=5.68,STAT.A=7.0,ExtBa=13.34
26/11/2022,07:55:02,TEMP=12.3,BA=5.68,STAT.B=7.0,ExtBa=13.34
26/11/2022,07:57:29,TEMP=12.6,BA=5.68,STAT.F,ExtBa=13.30
26/11/2022,08:12:28,TEMP=12.8,BA=5.68,STAT.D=7.0,ExtBa=13.34
26/11/2022,08:27:28,TEMP=13.0,BA=5.68,STAT.D=7.0,ExtBa=13.34
26/11/2022,08:42:28,TEMP=13.1,BA=5.68,STAT.D=7.0,ExtBa=13.34
26/11/2022,08:57:29,TEMP=13.1,BA=5.68,STAT.F,ExtBa=13.31
26/11/2022,09:12:28,TEMP=13.1,BA=5.68,STAT.D=7.0,ExtBa=13.34
26/11/2022,09:27:28,TEMP=13.2,BA=5.68,STAT.D=7.0,ExtBa=13.33
26/11/2022,09:42:28,TEMP=13.4,BA=5.68,STAT.D=7.0,ExtBa=13.34
26/11/2022,09:57:30,TEMP=13.7,BA=5.68,STAT.F,ExtBa=13.32
26/11/2022,10:12:28,TEMP=14.2,BA=5.68,STAT.D=7.0,ExtBa=13.34
26/11/2022,10:27:28,TEMP=14.6,BA=5.68,STAT.D=7.0,ExtBa=13.34
26/11/2022,10:42:28,TEMP=14.6,BA=5.68,STAT.D=7.0,ExtBa=13.34
26/11/2022,10:57:30,TEMP=14.7,BA=5.68,STAT.F,ExtBa=13.33
26/11/2022,11:12:28,TEMP=14.9,BA=5.68,STAT.D=7.0,ExtBa=13.34
26/11/2022,11:27:28,TEMP=15.3,BA=5.68,STAT.D=7.0,ExtBa=13.34
26/11/2022,11:42:28,TEMP=15.5,BA=5.68,STAT.D=7.0,ExtBa=13.34
26/11/2022,11:57:30,TEMP=15.6,BA=5.68,STAT.F,ExtBa=13.32
26/11/2022,12:12:28,TEMP=15.7,BA=5.68,STAT.D=7.0,ExtBa=13.34
26/11/2022,12:27:28,TEMP=15.4,BA=5.68,STAT.D=7.0,ExtBa=13.34
26/11/2022,12:42:28,TEMP=15.3,BA=5.68,STAT.D=7.0,ExtBa=13.33
26/11/2022,12:57:30,TEMP=15.3,BA=5.68,STAT.F,ExtBa=13.32
26/11/2022,13:12:28,TEMP=15.4,BA=5.68,STAT.D=7.0,ExtBa=13.33
26/11/2022,13:27:28,TEMP=16.0,BA=5.68,STAT.D=7.0,ExtBa=13.33
26/11/2022,13:42:28,TEMP=16.4,BA=5.68,STAT.D=7.0,ExtBa=13.33
26/11/2022,13:57:29,TEMP=16.7,BA=5.68,STAT.F,ExtBa=13.31
26/11/2022,13:59:56,TEMP=16.8,BA=5.68,STAT.B=7.0,ExtBa=13.31
26/11/2022,14:12:25,TEMP=16.0,BA=5.68,STAT.A=7.0,ExtBa=13.32
26/11/2022,14:21:59,TEMP=15.7,BA=5.68,STAT.A=7.0,ExtBa=13.37
26/11/2022,14:29:34,TEMP=15.6,BA=5.68,STAT.A=7.0,ExtBa=13.37
26/11/2022,14:35:45,TEMP=15.5,BA=5.60,STAT.A=7.0,ExtBa=13.36
26/11/2022,14:40:54,TEMP=15.5,BA=5.68,STAT.A=7.0,ExtBa=13.36
26/11/2022,14:45:15,TEMP=15.5,BA=5.68,STAT.A=7.0,ExtBa=13.35